DateTimeUTC,F1_A11,F1_S11,BsB_S11,BsG_S11,BsR_S11,BbsB_S11,BbsG_S11,BbsR_S11,BaB_A11,BaG_A11,BaR_A11,Tu_S11,T_S11,Uu_S11,U_S11,P_S11,T1_A11
2021-08-09T19:00:00Z,00000200,20000000,,,,,,,-000.48,-000.33,0000.14,19.1,25.6,09.4,06.3,0670.2,31.0
2021-08-09T19:01:00Z,00000200,20000000,,,,,,,0000.66,0000.46,-000.15,19.1,25.6,09.4,06.3,0670.3,31.0
2021-08-09T19:02:00Z,00000200,20000000,,,,,,,-000.20,-000.66,0000.32,19.1,25.6,09.4,06.3,0670.3,31.0
2021-08-09T19:03:00Z,00000200,60000000,,,,,,,0000.40,0000.93,-000.14,19.1,25.7,09.4,06.3,0670.3,31.0
2021-08-09T19:04:00Z,00000200,40000000,0000.90,0000.99,0000.35,0000.42,-000.09,0000.10,-000.14,-000.23,0000.14,19.2,25.5,09.5,06.5,0671.2,31.0
2021-08-09T19:05:00Z,00000200,00000000,0000.94,0001.10,0000.46,0000.41,0000.09,-000.28,-000.33,0000.35,0000.23,19.2,25.4,09.5,06.5,0671.3,31.0
2021-08-09T19:06:00Z,00000200,00000000,0001.22,0001.30,0000.86,-000.10,-000.02,0000.28,0000.86,0000.06,0000.40,19.2,25.4,09.5,06.6,0671.3,31.0
2021-08-09T19:07:00Z,00000200,00000000,0000.89,0000.74,0000.66,-000.18,0000.27,-000.13,0000.31,0000.67,0000.37,19.2,25.4,09.7,06.7,0671.3,31.0
2021-08-09T19:08:00Z,00000200,00000000,0001.37,0000.83,0000.66,0000.40,0000.23,0000.20,0000.25,0000.19,0000.21,19.2,25.4,09.8,06.8,0671.3,31.0
2021-08-09T19:09:00Z,00000200,00000000,0000.80,0000.92,0000.79,0000.79,-000.03,-000.03,0000.44,0000.28,0000.23,19.2,25.4,09.7,06.7,0671.2,31.0
2021-08-09T19:10:00Z,00000200,00000000,0000.96,0000.89,0000.95,-000.04,0000.17,-000.10,0000.46,0000.66,0000.51,19.2,25.4,09.9,06.8,0671.2,31.0
2021-08-09T19:11:00Z,00000200,00000000,0000.86,0001.02,0000.21,0000.81,0000.16,0000.28,0000.29,0000.27,0000.32,19.2,25.4,10.0,06.9,0671.2,31.0
2021-08-09T19:12:00Z,00000200,00000000,0001.11,0001.07,0000.73,0000.33,0000.20,0000.22,-000.11,-000.19,-000.14,19.2,25.4,09.9,06.8,0671.2,31.0
2021-08-09T19:13:00Z,00000200,00000000,0000.94,0000.97,0000.63,0000.09,0000.12,0000.12,0000.43,0000.56,0000.31,19.2,25.4,09.9,06.8,0671.2,31.0
2021-08-09T19:14:00Z,00000200,00000000,0001.83,0001.06,0000.60,0000.49,-000.01,0000.16,-000.21,-000.74,0000.00,19.2,25.4,09.9,06.8,0671.2,31.0
2021-08-09T19:15:00Z,00000200,00000000,0001.57,0001.08,0000.96,0000.18,-000.00,0000.32,-000.08,0000.62,0000.00,19.3,25.4,09.8,06.7,0671.2,31.0
2021-08-09T19:16:00Z,00000200,00000000,0001.35,0000.59,0000.75,0000.14,-000.00,0000.17,0000.42,0000.13,0000.50,19.2,25.4,09.8,06.8,0671.2,31.0
2021-08-09T19:17:00Z,00000200,00000000,0001.02,0000.74,0000.71,0000.44,0000.17,0000.14,0000.18,0000.04,-000.00,19.3,25.4,09.8,06.8,0671.2,31.0
2021-08-09T19:18:00Z,00000200,00000000,0001.73,0000.95,0000.40,0000.39,0000.07,0000.03,0000.50,0000.70,0000.41,19.2,25.4,09.9,06.8,0671.2,31.1
2021-08-09T19:19:00Z,00000200,00000000,0001.00,0001.38,0000.78,-000.35,0000.34,0000.06,0000.43,0000.23,0000.30,19.3,25.4,10.0,06.9,0671.2,31.0
2021-08-09T19:20:00Z,00000200,00000000,0001.39,0001.79,0000.79,0000.25,0000.19,0000.07,0000.46,0000.69,0000.76,19.2,25.4,10.3,07.1,0671.3,31.0
2021-08-09T19:21:00Z,00000200,00000000,0001.85,0001.82,0001.37,0000.21,0000.22,0000.27,0000.86,0000.57,0000.13,19.2,25.4,10.3,07.1,0671.3,31.0
2021-08-09T19:22:00Z,00000200,00000000,0003.00,0002.34,0001.33,0000.34,0000.26,0000.32,0000.21,0000.36,0000.44,19.2,25.3,10.2,07.0,0671.3,31.0
2021-08-09T19:23:00Z,00000200,00000000,0001.86,0002.35,0001.56,0000.24,0000.44,0000.29,0000.50,0000.65,0000.64,19.2,25.3,10.2,07.0,0671.3,31.0
2021-08-09T19:24:00Z,00000200,00000000,0002.53,0001.97,0001.42,0000.50,0000.17,0000.27,0000.40,0000.58,0000.31,19.2,25.3,10.3,07.1,0671.3,31.0
2021-08-09T19:25:00Z,00000200,00000000,0002.20,0001.93,0001.44,0000.78,0000.14,0000.10,0000.46,-000.33,0000.25,19.2,25.3,10.2,07.0,0671.3,31.0
2021-08-09T19:26:00Z,00000200,00000000,0001.63,0002.10,0001.47,0000.10,-000.14,0000.24,0000.34,0000.66,0000.17,19.2,25.3,10.1,07.0,0671.4,31.0
2021-08-09T19:27:00Z,00000200,00000000,0002.72,0001.92,0001.59,0001.18,0000.57,0000.03,0000.39,-000.19,0000.16,19.2,25.3,10.1,06.9,0671.4,31.0
2021-08-09T19:28:00Z,00000200,00000000,0002.87,0002.42,0001.53,0000.78,0000.41,0000.39,0000.08,0000.21,-000.10,19.2,25.3,10.1,06.9,0671.4,31.0
2021-08-09T19:29:00Z,00000200,00000000,0002.92,0002.05,0001.56,0000.61,0000.17,0000.28,0000.14,0000.09,-000.21,19.2,25.3,09.8,06.8,0671.4,31.0
2021-08-09T19:30:00Z,00000200,00000000,0003.12,0002.31,0001.79,-000.55,0000.16,0000.10,-000.02,0000.18,0000.44,19.2,25.3,09.6,06.6,0671.4,31.0
2021-08-09T19:31:00Z,00000200,00000000,0002.94,0002.22,0001.81,0000.51,0000.56,0000.52,0000.42,0000.34,0000.23,19.2,25.3,09.5,06.5,0671.4,31.0
2021-08-09T19:32:00Z,00000200,00000000,0003.66,0002.50,0001.63,0000.68,0000.61,-000.02,0000.29,0000.22,0000.16,19.2,25.3,09.5,06.5,0671.4,31.0
2021-08-09T19:33:00Z,00000200,00000000,0003.16,0002.61,0001.99,0000.14,0000.59,0000.42,0000.59,0000.61,0000.50,19.2,25.3,09.3,06.4,0671.4,31.0
2021-08-09T19:34:00Z,00000200,00000000,0003.26,0003.13,0001.83,0000.41,0000.18,0000.18,0000.27,0000.27,0000.64,19.2,25.3,09.3,06.4,0671.4,31.0
2021-08-09T19:35:00Z,00000200,00000000,0003.63,0002.78,0001.97,0000.95,0000.40,0000.45,0000.91,0000.91,0000.41,19.2,25.3,09.3,06.4,0671.4,31.0
2021-08-09T19:36:00Z,00000200,00000000,0003.98,0002.62,0001.44,0000.26,0000.42,0000.29,0000.37,0000.38,0000.32,19.2,25.3,09.3,06.4,0671.4,31.0
2021-08-09T19:37:00Z,00000200,00000000,0003.33,0003.07,0001.91,0000.82,0000.49,0000.43,0000.49,0000.66,0000.32,19.2,25.3,09.4,06.5,0671.4,31.0
2021-08-09T19:38:00Z,00000200,00000000,0002.81,0002.55,0002.01,0000.81,0000.15,0000.45,0000.58,0000.54,0001.16,19.2,25.3,09.4,06.5,0671.5,31.0
2021-08-09T19:39:00Z,00000200,00000000,0003.67,0002.61,0002.16,0000.35,0000.23,0000.09,0000.80,0000.81,0000.24,19.2,25.3,09.6,06.6,0671.5,31.0
2021-08-09T19:40:00Z,00000200,00000000,0003.47,0002.36,0001.83,0000.64,0000.08,0000.13,0001.06,0000.77,0000.82,19.2,25.3,09.6,06.6,0671.5,31.0
2021-08-09T19:41:00Z,00000200,00000000,0003.33,0002.82,0002.07,0000.36,0000.37,0000.36,0000.64,0000.87,0000.39,19.2,25.3,09.5,06.5,0671.5,31.0
2021-08-09T19:42:00Z,00000200,00000000,0003.59,0002.92,0002.00,0000.25,0000.21,0000.34,0000.41,0000.59,0000.48,19.2,25.3,09.6,06.6,0671.5,31.0
2021-08-09T19:43:00Z,00000200,00000000,0003.55,0002.55,0001.76,0000.44,0000.23,0000.06,0000.64,0000.37,0000.15,19.2,25.3,09.6,06.6,0671.5,31.0
2021-08-09T19:44:00Z,00000200,00000000,0003.32,0002.80,0002.28,0000.39,0000.17,0000.57,0000.04,0000.13,0000.55,19.2,25.3,09.5,06.6,0671.5,31.0
2021-08-09T19:45:00Z,00000200,00000000,0003.59,0002.75,0001.85,0000.50,0000.27,0000.05,0000.80,0000.91,0000.69,19.2,25.3,09.4,06.5,0671.5,31.0
2021-08-09T19:46:00Z,00000200,00000000,0004.36,0002.84,0001.86,-000.05,0000.61,0000.48,0000.81,0000.16,0000.22,19.2,25.3,09.4,06.5,0671.5,31.0
2021-08-09T19:47:00Z,00000200,00000000,0003.50,0002.64,0002.15,-000.18,0000.20,0000.02,0000.85,0000.77,0000.22,19.2,25.3,09.4,06.5,0671.6,31.0
2021-08-09T19:48:00Z,00000200,00000000,0003.17,0003.12,0001.50,0000.74,0000.10,0000.11,0000.55,0000.89,0000.60,19.2,25.3,09.5,06.6,0671.6,31.0
2021-08-09T19:49:00Z,00000200,00000000,0003.61,0002.84,0001.80,0000.61,0000.49,0000.01,0000.45,0000.21,0000.98,19.2,25.3,09.5,06.6,0671.6,31.0
2021-08-09T19:50:00Z,00000200,00000000,0003.75,0002.77,0001.96,0000.67,-000.00,0000.24,0000.26,0000.49,0000.30,19.2,25.3,09.5,06.5,0671.6,31.0
2021-08-09T19:51:00Z,00000200,00000000,0003.03,0002.61,0001.81,0000.19,0000.25,0000.46,0000.91,0000.83,0000.69,19.2,25.3,09.5,06.5,0671.6,31.0
2021-08-09T19:52:00Z,00000200,00000000,0003.06,0002.85,0002.07,-000.04,0000.07,0000.57,0000.71,0000.62,0000.41,19.2,25.3,09.5,06.5,0671.6,31.0
2021-08-09T19:53:00Z,00000200,00000000,0003.70,0002.89,0001.66,0000.47,0000.31,0000.29,0000.55,0000.52,0000.32,19.2,25.3,09.4,06.5,0671.6,31.0
2021-08-09T19:54:00Z,00000200,00000000,0003.02,0002.45,0001.78,0000.43,0000.17,-000.02,0000.72,0000.65,0000.74,19.2,25.2,09.5,06.5,0671.5,31.0
2021-08-09T19:55:00Z,00000200,00000000,0003.15,0002.71,0001.54,0000.59,0000.29,0000.35,0000.90,0000.65,0000.61,19.2,25.3,09.7,06.7,0671.6,31.0
2021-08-09T19:56:00Z,00000200,00000000,0003.30,0002.73,0001.80,0000.37,0000.21,0000.34,0000.72,0000.99,0000.39,19.2,25.3,09.7,06.7,0671.6,31.0
2021-08-09T19:57:00Z,00000200,40000000,,,,,,,0000.10,0000.02,0000.21,19.2,25.3,09.7,06.7,0671.5,31.0
2021-08-09T19:58:00Z,00000200,60000000,,,,,,,-000.19,-000.07,0000.33,18.9,25.4,09.7,06.5,0670.6,31.0
2021-08-09T19:59:00Z,00000200,20000000,,,,,,,-000.06,-000.46,-000.34,18.9,25.5,09.7,06.5,0670.6,31.0
